This is the latest recevied weather packets stored in our database for station/object KF0PEC-15. If no packets are shown the sender has not sent any weather packets the latest 1 day(s).
| Time | Temp. | Humidity | Pressure | Rain* | Wind** | Luminosity | Snow |
|---|---|---|---|---|---|---|---|
| 1777973124 | 7.22° C | 87% | 1014.2 hPa | 0 mm | 0.45 m/s, 156° | 0 W/m² | - |
| 1777972534 | 7.22° C | 86% | 1014 hPa | 0 mm | 0.45 m/s, 122° | 0 W/m² | - |
| 1777972039 | 7.78° C | 85% | 1013.7 hPa | 0 mm | 0.45 m/s, 133° | 0 W/m² | - |
| 1777971460 | 7.78° C | 85% | 1013.8 hPa | 0 mm | 0.45 m/s, 124° | 0 W/m² | - |
| 1777970911 | 7.78° C | 84% | 1014 hPa | 0 mm | 0.45 m/s, 128° | 0 W/m² | - |
| 1777969749 | 7.78° C | 83% | 1014 hPa | 0 mm | 0.45 m/s, 117° | 0 W/m² | - |
| 1777969249 | 8.33° C | 82% | 1014.1 hPa | 0 mm | 0.45 m/s, 129° | 0 W/m² | - |
| 1777968669 | 8.33° C | 82% | 1013.9 hPa | 0 mm | 0 m/s | 0 W/m² | - |
| 1777968120 | 8.33° C | 81% | 1013.9 hPa | 0 mm | 0.45 m/s, 105° | 0 W/m² | - |
| 1777967534 | 8.33° C | 81% | 1014.1 hPa | 0 mm | 0.45 m/s, 57° | 0 W/m² | - |
| 1777966949 | 8.33° C | 82% | 1014.1 hPa | 0 mm | 0.45 m/s, 92° | 0 W/m² | - |
| 1777966428 | 8.33° C | 83% | 1014.3 hPa | 0 mm | 0.45 m/s, 123° | 0 W/m² | - |
| 1777965924 | 8.33° C | 83% | 1014.4 hPa | 0 mm | 0.45 m/s, 111° | 0 W/m² | - |
| 1777965404 | 8.33° C | 83% | 1014.1 hPa | 0 mm | 0.45 m/s, 121° | 0 W/m² | - |
| 1777964924 | 8.33° C | 82% | 1014.2 hPa | 0 mm | 0 m/s | 0 W/m² | - |
| 1777964374 | 8.33° C | 83% | 1014.2 hPa | 0 mm | 0.45 m/s, 97° | 0 W/m² | - |
| 1777963874 | 8.33° C | 83% | 1014.1 hPa | 0 mm | 0.45 m/s, 115° | 0 W/m² | - |
| 1777963329 | 8.33° C | 83% | 1014.1 hPa | 0 mm | 0 m/s | 0 W/m² | - |
| 1777962744 | 8.33° C | 83% | 1014.1 hPa | 0 mm | 0.45 m/s, 135° | 0 W/m² | - |
| 1777962234 | 8.89° C | 82% | 1013.7 hPa | 0.51 mm | 0.45 m/s, 146° | 0 W/m² | - |
| 1777961664 | 8.89° C | 81% | 1013.7 hPa | 0.25 mm | 0.45 m/s, 137° | 0 W/m² | - |
| 1777961134 | 9.44° C | 79% | 1013.4 hPa | 0.51 mm | 0 m/s | 0 W/m² | - |
| 1777960539 | 9.44° C | 74% | 1013.6 hPa | 0 mm | 0 m/s | 0 W/m² | - |
| 1777959939 | 10° C | 70% | 1013.3 hPa | 0 mm | 0.45 m/s, 134° | 0 W/m² | - |
| 1777959349 | 10° C | 69% | 1013.2 hPa | 0 mm | 0.45 m/s, 52° | 0 W/m² | - |
* Rain latest hour (hover to see other rain measurements)
** Current wind speed in m/s (hover to see current wind gust speed)